User: anonymous   Login
Location: Blue Moon Astronomical Observatory
(34.7385°N, 94.5476°W)
Time: 02:25:37
(UTC-05:00)
Language:

Iridium 77 - Orbit

View from above orbital plane
View from above orbital plane
View from above satellite
View from above satellite

Ground track
Ground track

The orbit data is extracted from the following two-line orbital elements,

1 25471U 98051E   16212.47851574  .00000139  00000-0  42736-4 0  9994
2 25471  86.3998 156.1398 0002340  82.2239  54.7553 14.34221376941929
Epoch (UTC): 30 July 2016 11:29:03
Eccentricity: 0.0002340
inclination: 86.3998°
perigee height: 776 km
apogee height: 779 km
right ascension of ascending node: 156.1398°
argument of perigee: 82.2239°
revolutions per day: 14.34221376
mean anomaly at epoch: 54.7553°
orbit number at epoch: 94192

The dashed part of the orbit path shows where the satellite is in the earth's shadow,  

DLR